FENGYUN 1C DEB

Satellite information

Favourite Embed

Satellite Type and Status

DEBRISIN ORBIT

Key statistics

Satellite FENGYUN 1C DEB at a glance.

Uptime

9715

Days in orbit

Revolutions

≈ 14.4

Per day

Orbit

SSO

Sun Synchronous Orbit

Inclination

99.0

Latest

Satellite identification and parameters

Extended collection of information and parameters for FENGYUN 1C DEB.

Object identification

Identified? True

Debris? True

Object name: FENGYUN 1C DEB

International designator: 1999-025ABA

Object number (NORAD): 30339

Object ID (CCSDS): 30339

Country: PEOPLES REPUBLIC OF CHINA (PRC)

Current information (Y/N): Y

RCS size: SMALL

Orbital parameters

Period: 100.129 minutes

Inclination: 98.9729 deg

SMA: 7142.754 km

Apoapsis: 779.393 km

Periapsis: 749.845 km

RAAN: 92.6556 deg

Eccentricy: 0.0020684

Argument of periapsis: 86.5135 deg

Mean anomaly: 303.8664 deg

Mean motion: 14.3815013 rev/day

Mean motion (dot): 0.00012044 rev/day2

B* drag term: 0.0039691297 1/REarth

Two-line elements (TLE)

Creation date: Dec. 12, 2025, 10:14 a.m.

Reference frame: TEME

Reference center: EARTH

Epoch: Dec. 12, 2025, 5:58 a.m. UTC

TLE line 0: 0 FENGYUN 1C DEB

TLE line 1: 1 30339U 99025ABA 25346.24888385 .00012044 00000-0 39691-2 0 9990

TLE line 2: 2 30339 98.9729 92.6556 0020684 86.5135 303.8664 14.38150130974203

Live tracking on map

Real-time ground track for satellite FENGYUN 1C DEB.

In-orbit conjunctions

A list of the most updated potential collisions computed for object FENGYUN 1C DEB.

Target Orbit TCA Probability of collision Miss distance Type
COSMOS 1898 LEO 2025-11-01 05:39:00 0.0001267518 251.0 (m) PAYLOAD
CZ-2D R/B SSO 2024-08-16 09:18:50 0.000402789 349.0 (m) ROCKET BODY
COSMOS 1371 LEO 2024-07-22 08:01:25 0.0002692245 797.0 (m) PAYLOAD

Associated space launch

Chinese polar orbiting meteorological satellite

FENGYUN 1C DEB was lifted into orbit during the mission ‘Long March 4B | Feng Yun 1C’, on board a Long March 4B space rocket.

The launch took place on May 10, 1999, 1:33 a.m. from Launch Complex 7.

For more information about the launch, click the button.

Launch to space Long March 4B | Feng Yun 1C
Long March 4B | Feng Yun 1C

Agency: N/A

Status: Launch Successful

Launch date: May 10, 1999, 1:33 a.m. UTC

Rocket: Long March 4B

Launch pad: Launch Complex 7

Location: Taiyuan Satellite Launch Center, People's Republic of China

...

Latest news about this satellite

There are no fresh news available about this satellite. Check back as we update our databases every day.


Newsletter sign-up

Weekly statistics, charts and insights to help you stay on top of the space industry.